Regional Weather Roundup
Issued by NWS

Home | Current Version | Previous Version | Graphics & Text | Print | Product List | Glossary On
Versions: 1 2 3 4 5 6 7 8 9 10 11 12 13 14 15 16 17 18 19 20 21 22 23 24 25 26 27 28 29 30 31 32 33 34 35 36 37 38 39 40 41 42 43 44 45 46 47 48 49 50
277
ASUS44 KJAN 151303
RWRMS

MISSISSIPPI HOURLY WEATHER ROUNDUP
NATIONAL WEATHER SERVICE JACKSON MS
800 AM CDT TUE APR 15 2014

NOTE: "FAIR: INDICATES FEW OR NO CLOUDS BELOW 12,000 FEET WITH NO
SIGNIFICANT WEATHER AND/OR OBSTRUCTIONS TO VISIBILITY.

MSZ001>002-007>008-010>013-018>021-025>028-034>036-151400-
NORTHWEST MISSISSIPPI

CITY           SKY/WX    TMP DP  RH WIND       PRES   REMARKS
CLARKSDALE       N/A     39  28  65 N17G23    30.22R WCI  30
CLEVELAND      FAIR      39  32  76 N18G25    30.21R WCI  30
GREENWOOD      SUNNY     40  29  64 N17       30.18R WCI  31
GREENVILLE     SUNNY     41  31  67 N13G26    30.21R
GRENADA        FAIR      37  30  75 N14G22    30.18R WCI  29
OLIVE BRANCH   SUNNY     36  28  75 N12G23    30.19R WCI  27
OXFORD         FAIR      36  27  69 N13G18    30.17R WCI  27
TUNICA         SUNNY     37  30  75 N17       30.22R WCI  28
$$

MSZ003>006-009-014>017-022>024-029>033-037>039-151400-
NORTHEAST MISSISSIPPI

CITY           SKY/WX    TMP DP  RH WIND       PRES   REMARKS
BELMONT        CLOUDY    36  32  87 NW9G18    30.08R WCI  29
COLUMBUS AFB   LGT RAIN  40  34  80 N14G25    30.09R WCI  32
CORINTH        MIX PCPN  37  27  65 N16G23    30.12R WCI  28
GOLDN TRIANGLE CLOUDY    39  30  70 N23G29    30.10R WCI  29
STARKVILLE     CLOUDY    39  32  75 N12G22    30.09R WCI  32
TUPELO         PTSUNNY   39  27  62 N18G30    30.11R WCI  30
$$

MSZ040-058-151400-
CENTRAL MISSISSIPPI

CITY           SKY/WX    TMP DP  RH WIND       PRES   REMARKS
JACKSON INTL   CLOUDY    42  34  73 N20       30.14R
JACKSON HAWKNS PTSUNNY   42  31  64 N12G21    30.15R
MERIDIAN KEY   CLOUDY    41  35  79 N16G26    30.07R
MERIDIAN NAS   CLOUDY    41  35  79 NW17      30.07R
RAYMOND        PTSUNNY   41  37  87 N13G20    30.16R
VICKSBURG      MOSUNNY   44  33  65 N14G22    30.20R
$$

MSZ059>079-151400-
SOUTH MISSISSIPPI

CITY           SKY/WX    TMP DP  RH WIND       PRES   REMARKS
BROOKHAVEN     CLOUDY    41  36  81 N9G21     30.13R
COLUMBIA       DRIZZLE   43  39  87 MISG      30.09R
HATTIESBURG    CLOUDY    45  38  76 N14G24    30.08R
MCCOMB         CLOUDY    43  36  76 N17G25    30.11R
NATCHEZ        CLOUDY    43  30  61 N12G26    30.16R
PINE BELT      CLOUDY    43  37  81 NW13G18   30.08R
$$

MSZ080>082-151400-
COASTAL MISSISSIPPI

CITY           SKY/WX    TMP DP  RH WIND       PRES   REMARKS
BILOXI         CLOUDY    47  45  90 N21G30    30.01R
PASCAGOULA     CLOUDY    47  45  93 N13G20    29.99R
GULFPORT       CLOUDY    50  42  74 N20G30    30.02R
$$



USA.gov is the U.S. government's official web portal to all federal, state and local government web resources and services.